* Astronomy

Members Login
Username 
 
Password 
    Remember Me  
Post Info TOPIC: Asteroid 2012 TS


L

Posts: 131433
Date:
Asteroid (420738) 2012 TS
Permalink  
 


The 180 - 410 metre wide asteroid (420738) 2012 TS will make a close pass (63.7 LD, 0.1637 AU) travelling at 9.74 km/second, to the Earth-Moon system on the 17th April 2015 @ 12:33 UT ±00:01. 

See more

The Lunar Distance (LD), the distance between Earth and the Moon, equals 384,401 km, (or 0.00256 AU).



__________________


L

Posts: 131433
Date:
Asteroid 2012 TS
Permalink  
 


The 180 - 410 metre wide asteroid 2012 TS will make a close pass (40.3 lunar distances, 0.1037 AU) travelling at 8.61 km/second, to the Earth-Moon system on the 4th October 2014 @ 19:42 UT ±00:01. 

See more

The Lunar Distance (LD), the distance between Earth and the Moon, equals 384,401 km, (or 0.00256 AU).



__________________


L

Posts: 131433
Date:
Permalink  
 

The 180 - 410 metre wide asteroid 2003 SW130 will make a close pass (35.9 lunar distances, 0.0922 AU), travelling at 8.85 km/second, to the Earth-Moon system on the 28th September, 2013 @ 10:56 UT ±00:01. 

See more

The Lunar Distance (LD), the distance between Earth and the Moon, equals 384,401 km, (or 0.00256 AU).



__________________


L

Posts: 131433
Date:
Permalink  
 

Orbital elements:
2012 TS                                                  Earth MOID = 0.0905 AU
Epoch 2012 Sept. 30.0 TT = JDT 2456200.5                MPC
M 142.40958              (2000.0)            P               Q
n   1.00103166     Peri.   21.07447     -0.85067766     +0.52292597
a   0.9897014      Node   190.94395     -0.51370012     -0.84864879
e   0.1142184      Incl.   16.46668     -0.11162306     -0.07964710
P   0.98           H   20.7           G   0.15           U   8

MPEC 2012 - T12



__________________
Page 1 of 1  sorted by
 
Quick Reply

Please log in to post quick replies.



Create your own FREE Forum
Report Abuse
Powered by ActiveBoard